Location: Linz
(48.3300°N, 14.3000°E)
Time: 09:23:06
(UTC+01:00)

ISS - Pass Details

Date: 18 November 2017
Orbit: 402 x 407 km, 51.6° (Epoch: 19 November)

Event Time Altitude Azimuth Distance (km) Brightness Sun altitude
Exits shadow 05:31:22 11° 206° (SSW) 1,391 -1.3 -17.0°
Drops below altitude 10° 05:31:44 10° 200° (SSW) 1,448 -1.1 -16.9°
Sets 05:34:46 0° 168° (SSE) 2,301 0.3 -16.4°
